Torna al catalogo

STARLINK-35747

AttivoComunicazioniVLEO
NORAD 66207·PAYLOAD·🇺🇸 United States

Lanciato Oct 28, 2025 da Vandenberg Space Force Base

Loading…

Prossimi Passaggi (prossime 24 ore)

TLE

AggiornatoSource: CelesTrak SupGP

Epoca: Sep 14, 2026, 22:59 UTC

1 66207C 25244B   26257.95812500  .00037865  00000+0  11189-2 0  2577
2 66207  53.1573  67.5959 0001194  83.9687 202.4909 15.34367404    18

Traccia STARLINK-35747 in tempo reale con AllMySat

Download on the App Store